Weather History for Olathe, KS

Change the Weather History Date:

Wednesday, November 21, 2012

  Actual Average Record
Temperature  
Mean Temperature 55 °F 41 °F  
Max Temperature 70 °F 51 °F 73 °F (1966)
Min Temperature 40 °F 32 °F 7 °F (1964)
Degree Days  
Heating Degree Days 10 24  
Month to date heating degree days 327 396  
Since 1 July heating degree days 717 721  
Cooling Degree Days 0 0  
Month to date cooling degree days 3 0  
Year to date cooling degree days 1831 1349  
Growing Degree Days 6 (Base 50)    
Moisture  
Dew Point 39 °F    
Average Humidity 59    
Maximum Humidity 89    
Minimum Humidity 28    
Precipitation  
Precipitation 0.00 in 0.07 in 2.23 in (1979)
Month to date precipitation 1.43 1.85  
Year to date precipitation 24.27 37.76  
Sea Level Pressure  
Sea Level Pressure 30.13 in    
Wind  
Wind Speed 9 mph (South)    
Max Wind Speed 18 mph    
Max Gust Speed 23 mph    
Visibility 9 miles    
Events      
T = Trace of Precipitation, MM = Missing Value Source: NWS Daily Summary

Daily Weather History Graph

Daily Weather History Graph

Search for Another Location

Airport:

Trip Planner

Search our weather history database for the weather conditions in past years. The results will help you decide how hot, cold, wet, or windy it might be!

Date:

Astronomy

Nov. 21, 2012 Rise Set
Actual Time 7:08 AM CST 5:01 PM CST
Civil Twilight 6:39 AM CST 5:29 PM CST
Nautical Twilight 6:07 AM CST 6:02 PM CST
Astronomical Twilight 5:35 AM CST 6:34 PM CST
Moon 1:14 PM CST (11/21) 12:32 AM CST (11/21)
Length of Visible Light 10h 50m
Length of Day
9h 52m
First Quarter, 62% of the Moon is Illuminated
Nov 21
First Quarter
Nov 28
Full
Dec 6
Last Quarter
Dec 13
New
Dec 19
First Quarter

Hourly Weather History & Observations

Time (CST) Temp. Windchill Dew Point Humidity Pressure Visibility Wind Dir Wind Speed Gust Speed Precip Events Conditions
12:53 AM 42.1 °F 40.2 °F 39.0 °F 89% 30.21 in 7.0 mi SSW 3.5 mph - N/A   Clear
1:53 AM 42.1 °F 40.2 °F 37.9 °F 85% 30.21 in 8.0 mi SSW 3.5 mph - N/A   Clear
2:53 AM 41.0 °F 37.1 °F 37.9 °F 89% 30.21 in 7.0 mi South 5.8 mph - N/A   Clear
3:53 AM 41.0 °F 38.0 °F 37.9 °F 89% 30.20 in 7.0 mi South 4.6 mph - N/A   Clear
4:53 AM 42.1 °F 38.4 °F 39.0 °F 89% 30.20 in 8.0 mi SSW 5.8 mph - N/A   Clear
5:53 AM 44.1 °F 39.5 °F 39.9 °F 85% 30.19 in 9.0 mi South 8.1 mph - N/A   Clear
6:53 AM 43.0 °F 39.5 °F 39.0 °F 86% 30.20 in 9.0 mi SSW 5.8 mph - N/A   Clear
7:53 AM 44.1 °F 40.8 °F 39.9 °F 85% 30.21 in 7.0 mi SSW 5.8 mph - N/A   Clear
8:53 AM 50.0 °F - 43.0 °F 77% 30.22 in 9.0 mi South 10.4 mph - N/A   Clear
9:53 AM 55.9 °F - 45.0 °F 67% 30.22 in 10.0 mi SSW 9.2 mph - N/A   Clear
10:53 AM 59.0 °F - 41.0 °F 51% 30.20 in 10.0 mi SSW 11.5 mph - N/A   Clear
11:53 AM 63.0 °F - 42.1 °F 46% 30.17 in 10.0 mi SW 10.4 mph - N/A   Clear
12:53 PM 68.0 °F - 39.0 °F 35% 30.13 in 10.0 mi SSW 10.4 mph 19.6 mph N/A   Clear
1:53 PM 70.0 °F - 36.0 °F 29% 30.10 in 10.0 mi SSW 13.8 mph - N/A   Clear
2:53 PM 69.1 °F - 37.0 °F 31% 30.08 in 10.0 mi SSW 13.8 mph 23.0 mph N/A   Clear
3:53 PM 68.0 °F - 37.9 °F 33% 30.07 in 10.0 mi South 12.7 mph - N/A   Clear
4:53 PM 62.1 °F - 39.0 °F 43% 30.06 in 10.0 mi South 5.8 mph - N/A   Clear
5:53 PM 57.9 °F - 39.0 °F 49% 30.05 in 10.0 mi SSE 9.2 mph - N/A   Clear
6:53 PM 54.0 °F - 39.0 °F 57% 30.04 in 10.0 mi South 11.5 mph - N/A   Clear
7:53 PM 55.0 °F - 39.0 °F 55% 30.04 in 10.0 mi South 11.5 mph - N/A   Clear
8:53 PM 55.0 °F - 37.9 °F 53% 30.02 in 10.0 mi South 9.2 mph - N/A   Clear
9:53 PM 54.0 °F - 37.9 °F 55% 30.01 in 10.0 mi South 9.2 mph - N/A   Clear
10:53 PM 53.1 °F - 37.0 °F 55% 29.99 in 10.0 mi South 11.5 mph - N/A   Clear
11:53 PM 54.0 °F - 37.0 °F 53% 29.97 in 10.0 mi South 11.5 mph - N/A   Clear